| time (UTC) | temp C | wind direction | speed KPH | gust KPH | rain 1hr cm | rain 24hr cm | rain mn cm | humidity % | barometer mb |
| 20260509160522 | 15 | 43 | 6.4 | 12.9 | 0.00 | 0.00 | 0.00 | 30 | 1018.2 |
| 20260509155522 | 14 | 356 | 4.8 | 11.3 | 0.00 | 0.00 | 0.00 | 32 | 1018.2 |
| 20260509154516 | 13 | 22 | 4.8 | 9.7 | 0.00 | 0.00 | 0.00 | 36 | 1018.4 |
| 20260509153516 | 13 | 43 | 4.8 | 12.9 | 0.00 | 0.00 | 0.00 | 40 | 1018.5 |
| 20260509152523 | 12 | 34 | 8.0 | 14.5 | 0.00 | 0.00 | 0.00 | 42 | 1018.5 |
| 20260509151523 | 12 | 5 | 8.0 | 11.3 | 0.00 | 0.00 | 0.00 | 46 | 1018.5 |
| 20260509150523 | 11 | 21 | 6.4 | 12.9 | 0.00 | 0.00 | 0.00 | 50 | 1018.6 |
| 20260509145523 | 11 | 339 | 6.4 | 9.7 | 0.00 | 0.00 | 0.00 | 51 | 1018.6 |
| 20260509144538 | 11 | 354 | 9.7 | 12.9 | 0.00 | 0.00 | 0.00 | 49 | 1018.6 |
| 20260509143517 | 11 | 354 | 9.7 | 12.9 | 0.00 | 0.00 | 0.00 | 51 | 1018.6 |
| 20260509142518 | 11 | 354 | 8.0 | 11.3 | 0.00 | 0.00 | 0.00 | 45 | 1018.5 |
| 20260509141518 | 11 | 20 | 6.4 | 11.3 | 0.00 | 0.00 | 0.00 | 46 | 1018.4 |
| 20260509140521 | 10 | 325 | 1.6 | 4.8 | 0.00 | 0.00 | 0.00 | 52 | 1018.4 |
| 20260509135542 | 9 | 259 | 1.6 | 3.2 | 0.00 | 0.00 | 0.00 | 53 | 1018.3 |
| 20260509134522 | 8 | 164 | 3.2 | 4.8 | 0.00 | 0.00 | 0.00 | 53 | 1018.2 |
| 20260509133522 | 8 | 165 | 3.2 | 6.4 | 0.00 | 0.00 | 0.00 | 56 | 1018.3 |
| 20260509132522 | 7 | 154 | 3.2 | 4.8 | 0.00 | 0.00 | 0.00 | 59 | 1018.3 |
| 20260509131522 | 5 | 159 | 3.2 | 4.8 | 0.00 | 0.00 | 0.00 | 66 | 1018.2 |
| 20260509130522 | 5 | 300 | 1.6 | 4.8 | 0.00 | 0.00 | 0.00 | 65 | 1018.2 |
| 20260509125522 | 5 | 293 | 1.6 | 4.8 | 0.00 | 0.00 | 0.00 | 67 | 1018.1 |
| 20260509124523 | 3 | 155 | 3.2 | 6.4 | 0.00 | 0.00 | 0.00 | 66 | 1018.0 |
| 20260509123521 | 4 | 249 | 4.8 | 8.0 | 0.00 | 0.00 | 0.00 | 65 | 1017.8 |
| 20260509122521 | 3 | 82 | 6.4 | 12.9 | 0.00 | 0.00 | 0.00 | 66 | 1017.6 |
| 20260509121520 | 3 | 98 | 3.2 | 11.3 | 0.00 | 0.00 | 0.00 | 65 | 1017.5 |
| 20260509120523 | 3 | 229 | 3.2 | 4.8 | 0.00 | 0.00 | 0.00 | 71 | 1017.4 |
| 20260509115521 | 3 | 132 | 6.4 | 9.7 | 0.00 | 0.00 | 0.00 | 67 | 1017.3 |
| 20260509114524 | 2 | 197 | 4.8 | 8.0 | 0.00 | 0.00 | 0.00 | 73 | 1017.3 |
| 20260509113521 | 3 | 100 | 4.8 | 9.7 | 0.00 | 0.00 | 0.00 | 70 | 1017.3 |
| 20260509112521 | 2 | 75 | 3.2 | 11.3 | 0.00 | 0.00 | 0.00 | 75 | 1017.3 |
| 20260509111542 | 2 | 146 | 8.0 | 11.3 | 0.00 | 0.00 | 0.00 | 76 | 1017.2 |
| 20260509110521 | 2 | 143 | 6.4 | 8.0 | 0.00 | 0.00 | 0.00 | 74 | 1017.2 |
| 20260509105525 | 3 | 66 | 3.2 | 4.8 | 0.00 | 0.00 | 0.00 | 72 | 1017.1 |
| 20260509104542 | 1 | 80 | 6.4 | 9.7 | 0.00 | 0.00 | 0.00 | 78 | 1017.2 |
| 20260509103522 | 1 | 196 | 8.0 | 11.3 | 0.00 | 0.00 | 0.00 | 79 | 1017.2 |
| 20260509102522 | 1 | 150 | 8.0 | 12.9 | 0.00 | 0.00 | 0.00 | 78 | 1017.3 |
| 20260509101522 | 1 | 136 | 6.4 | 9.7 | 0.00 | 0.00 | 0.00 | 80 | 1017.2 |
| 20260509100522 | 1 | 197 | 8.0 | 11.3 | 0.00 | 0.00 | 0.00 | 82 | 1017.2 |
| 20260509095543 | 2 | 191 | 6.4 | 11.3 | 0.00 | 0.00 | 0.00 | 79 | 1017.2 |
| 20260509094523 | 2 | 181 | 4.8 | 9.7 | 0.00 | 0.00 | 0.00 | 79 | 1017.3 |
| 20260509093546 | 1 | 201 | 4.8 | 8.0 | 0.00 | 0.00 | 0.00 | 80 | 1017.4 |
| 20260509092526 | 2 | 186 | 3.2 | 4.8 | 0.00 | 0.00 | 0.00 | 81 | 1017.3 |
| 20260509091526 | 2 | 132 | 4.8 | 6.4 | 0.00 | 0.00 | 0.00 | 80 | 1017.3 |
| 20260509090527 | 2 | 116 | 3.2 | 3.2 | 0.00 | 0.00 | 0.00 | 80 | 1017.5 |
| 20260509085538 | 2 | 172 | 6.4 | 9.7 | 0.00 | 0.00 | 0.00 | 78 | 1017.5 |
| 20260509084518 | 2 | 145 | 9.7 | 14.5 | 0.00 | 0.00 | 0.00 | 79 | 1017.3 |
| 20260509083527 | 2 | 101 | 4.8 | 6.4 | 0.00 | 0.00 | 0.00 | 80 | 1017.4 |
| 20260509082527 | 1 | 233 | 4.8 | 8.0 | 0.00 | 0.00 | 0.00 | 82 | 1017.6 |
| 20260509081527 | 1 | 127 | 3.2 | 4.8 | 0.00 | 0.00 | 0.00 | 83 | 1017.7 |
| 20260509080527 | 1 | 155 | 4.8 | 6.4 | 0.00 | 0.00 | 0.00 | 82 | 1017.8 |
| 20260509075529 | 2 | 116 | 3.2 | 3.2 | 0.00 | 0.00 | 0.00 | 80 | 1017.8 |
| 20260509074528 | 2 | 99 | 3.2 | 4.8 | 0.00 | 0.00 | 0.00 | 80 | 1017.9 |
| 20260509073528 | 3 | 96 | 3.2 | 4.8 | 0.00 | 0.00 | 0.00 | 78 | 1018.0 |
| 20260509072520 | 3 | 143 | 6.4 | 9.7 | 0.00 | 0.00 | 0.00 | 74 | 1018.1 |
| 20260509071529 | 3 | 130 | 3.2 | 4.8 | 0.00 | 0.00 | 0.00 | 76 | 1018.1 |
| 20260509070520 | 3 | 142 | 6.4 | 9.7 | 0.00 | 0.00 | 0.00 | 75 | 1018.2 |
| 20260509065520 | 4 | 139 | 8.0 | 11.3 | 0.00 | 0.00 | 0.00 | 74 | 1018.3 |
| 20260509064520 | 5 | 132 | 4.8 | 9.7 | 0.00 | 0.00 | 0.00 | 71 | 1018.4 |
| 20260509063520 | 4 | 142 | 8.0 | 9.7 | 0.00 | 0.00 | 0.00 | 72 | 1018.4 |
| 20260509062529 | 4 | 139 | 3.2 | 8.0 | 0.00 | 0.00 | 0.00 | 75 | 1018.4 |
| 20260509061521 | 5 | 155 | 8.0 | 12.9 | 0.00 | 0.00 | 0.00 | 73 | 1018.5 |
| 20260509060521 | 5 | 143 | 6.4 | 12.9 | 0.00 | 0.00 | 0.00 | 72 | 1018.5 |
| 20260509055521 | 6 | 150 | 8.0 | 11.3 | 0.00 | 0.00 | 0.00 | 69 | 1018.5 |
| 20260509054602 | 6 | 159 | 8.0 | 11.3 | 0.00 | 0.00 | 0.00 | 67 | 1018.5 |
| 20260509053601 | 7 | 155 | 6.4 | 9.7 | 0.00 | 0.00 | 0.00 | 65 | 1018.4 |
| 20260509052521 | 8 | 129 | 6.4 | 9.7 | 0.00 | 0.00 | 0.00 | 61 | 1018.5 |
| 20260509051522 | 8 | 153 | 4.8 | 8.0 | 0.00 | 0.00 | 0.00 | 59 | 1018.4 |
| 20260509050551 | 9 | 184 | 1.6 | 4.8 | 0.00 | 0.00 | 0.00 | 55 | 1018.4 |
| 20260509045522 | 9 | 205 | 9.7 | 14.5 | 0.00 | 0.00 | 0.00 | 54 | 1018.3 |
| 20260509044522 | 9 | 170 | 9.7 | 16.1 | 0.00 | 0.00 | 0.00 | 57 | 1018.2 |
| 20260509043520 | 10 | 210 | 14.5 | 22.5 | 0.00 | 0.00 | 0.00 | 55 | 1018.3 |
| 20260509042519 | 10 | 202 | 16.1 | 27.4 | 0.00 | 0.00 | 0.00 | 52 | 1018.1 |
| 20260509041523 | 10 | 216 | 8.0 | 16.1 | 0.00 | 0.00 | 0.00 | 57 | 1018.2 |
| 20260509040600 | 10 | 199 | 12.9 | 24.1 | 0.00 | 0.00 | 0.00 | 57 | 1018.3 |
| 20260509035517 | 10 | 202 | 14.5 | 22.5 | 0.00 | 0.00 | 0.00 | 56 | 1018.2 |
| 20260509034520 | 9 | 199 | 11.3 | 19.3 | 0.00 | 0.00 | 0.00 | 60 | 1018.3 |
| 20260509033517 | 10 | 149 | 6.4 | 9.7 | 0.00 | 0.00 | 0.00 | 61 | 1018.1 |
| 20260509032532 | 10 | 224 | 6.4 | 8.0 | 0.00 | 0.00 | 0.00 | 59 | 1018.2 |
| 20260509031523 | 10 | 197 | 9.7 | 14.5 | 0.00 | 0.00 | 0.00 | 56 | 1018.0 |
| 20260509030518 | 10 | 188 | 6.4 | 9.7 | 0.00 | 0.00 | 0.00 | 55 | 1017.9 |
| 20260509025518 | 11 | 185 | 6.4 | 8.0 | 0.00 | 0.00 | 0.00 | 55 | 1017.8 |
| 20260509024518 | 11 | 203 | 6.4 | 11.3 | 0.00 | 0.00 | 0.00 | 53 | 1017.7 |
| 20260509023519 | 11 | 211 | 11.3 | 16.1 | 0.00 | 0.00 | 0.00 | 49 | 1017.4 |
| 20260509022524 | 11 | 197 | 11.3 | 16.1 | 0.00 | 0.00 | 0.00 | 53 | 1017.2 |
| 20260509021557 | 11 | 196 | 12.9 | 19.3 | 0.00 | 0.00 | 0.00 | 51 | 1017.0 |
| 20260509020520 | 12 | 197 | 11.3 | 16.1 | 0.00 | 0.00 | 0.00 | 52 | 1016.9 |
| 20260509015519 | 12 | 211 | 12.9 | 17.7 | 0.00 | 0.00 | 0.00 | 47 | 1016.7 |
| 20260509014519 | 12 | 185 | 9.7 | 12.9 | 0.00 | 0.00 | 0.00 | 51 | 1016.6 |
| 20260509013518 | 12 | 201 | 12.9 | 17.7 | 0.00 | 0.00 | 0.00 | 50 | 1016.5 |
| 20260509012518 | 13 | 207 | 11.3 | 16.1 | 0.00 | 0.00 | 0.00 | 48 | 1016.4 |
| 20260509011517 | 14 | 178 | 17.7 | 24.1 | 0.00 | 0.00 | 0.00 | 43 | 1016.2 |
| 20260509010517 | 15 | 179 | 17.7 | 24.1 | 0.00 | 0.00 | 0.00 | 41 | 1016.1 |
| 20260509005519 | 15 | 172 | 19.3 | 29.0 | 0.00 | 0.00 | 0.00 | 41 | 1016.0 |
| 20260509004518 | 15 | 171 | 20.9 | 30.6 | 0.00 | 0.00 | 0.00 | 40 | 1016.0 |
| 20260509003517 | 16 | 174 | 22.5 | 30.6 | 0.00 | 0.00 | 0.00 | 40 | 1015.9 |
| 20260509002518 | 16 | 178 | 20.9 | 29.0 | 0.00 | 0.00 | 0.00 | 39 | 1015.9 |
| 20260509001518 | 15 | 183 | 17.7 | 25.7 | 0.00 | 0.00 | 0.00 | 42 | 1015.8 |
| 20260509000518 | 15 | 182 | 17.7 | 25.7 | 0.00 | 0.00 | 0.00 | 41 | 1015.8 |
| 20260508235519 | 15 | 181 | 19.3 | 27.4 | 0.00 | 0.00 | 0.00 | 40 | 1015.7 |
| 20260508234559 | 16 | 184 | 17.7 | 24.1 | 0.00 | 0.00 | 0.00 | 40 | 1015.7 |
| 20260508233519 | 16 | 190 | 20.9 | 27.4 | 0.00 | 0.00 | 0.00 | 39 | 1015.7 |
| 20260508232519 | 16 | 185 | 17.7 | 29.0 | 0.00 | 0.00 | 0.00 | 36 | 1015.6 |
| 20260508231557 | 16 | 192 | 19.3 | 30.6 | 0.00 | 0.00 | 0.00 | 37 | 1015.6 |
| 20260508230516 | 16 | 199 | 14.5 | 20.9 | 0.00 | 0.00 | 0.00 | 36 | 1015.5 |
| 20260508225519 | 18 | 195 | 16.1 | 25.7 | 0.00 | 0.00 | 0.00 | 34 | 1015.4 |
| 20260508224521 | 19 | 253 | 1.6 | 8.0 | 0.00 | 0.00 | 0.00 | 23 | 1015.4 |
| 20260508223601 | 17 | 16 | 4.8 | 6.4 | 0.00 | 0.00 | 0.00 | 23 | 1015.4 |
| 20260508222521 | 17 | 7 | 6.4 | 11.3 | 0.00 | 0.00 | 0.00 | 24 | 1015.5 |
| 20260508221518 | 17 | 0 | 8.0 | 14.5 | 0.00 | 0.00 | 0.00 | 24 | 1015.6 |
| 20260508220517 | 18 | 72 | 6.4 | 14.5 | 0.00 | 0.00 | 0.00 | 25 | 1015.6 |
| 20260508215538 | 17 | 35 | 6.4 | 14.5 | 0.00 | 0.00 | 0.00 | 24 | 1015.8 |
| 20260508214518 | 17 | 33 | 4.8 | 12.9 | 0.00 | 0.00 | 0.00 | 25 | 1015.9 |
| 20260508213518 | 18 | 352 | 8.0 | 16.1 | 0.00 | 0.00 | 0.00 | 24 | 1016.0 |
| 20260508212518 | 17 | 8 | 4.8 | 9.7 | 0.00 | 0.00 | 0.00 | 24 | 1016.1 |
| 20260508211519 | 18 | 120 | 4.8 | 11.3 | 0.00 | 0.00 | 0.00 | 22 | 1016.2 |
| 20260508210559 | 18 | 348 | 9.7 | 16.1 | 0.00 | 0.00 | 0.00 | 24 | 1016.1 |
| 20260508205519 | 18 | 358 | 9.7 | 20.9 | 0.00 | 0.00 | 0.00 | 25 | 1016.3 |
| 20260508204519 | 17 | 325 | 8.0 | 16.1 | 0.00 | 0.00 | 0.00 | 26 | 1016.4 |
| 20260508203519 | 16 | 319 | 6.4 | 11.3 | 0.00 | 0.00 | 0.00 | 27 | 1016.5 |
| 20260508202517 | 17 | 297 | 4.8 | 11.3 | 0.00 | 0.00 | 0.00 | 27 | 1016.5 |
| 20260508201516 | 17 | 319 | 11.3 | 17.7 | 0.00 | 0.00 | 0.00 | 28 | 1016.6 |
| 20260508200539 | 16 | 270 | 9.7 | 19.3 | 0.00 | 0.00 | 0.00 | 29 | 1016.7 |
| 20260508195520 | 17 | 85 | 8.0 | 17.7 | 0.00 | 0.00 | 0.00 | 28 | 1016.8 |
| 20260508194520 | 17 | 52 | 4.8 | 9.7 | 0.00 | 0.00 | 0.00 | 29 | 1017.0 |
| 20260508193520 | 16 | 192 | 8.0 | 12.9 | 0.00 | 0.00 | 0.00 | 31 | 1017.0 |
| 20260508192520 | 15 | 167 | 6.4 | 12.9 | 0.00 | 0.00 | 0.00 | 30 | 1017.1 |
| 20260508191520 | 15 | 226 | 4.8 | 9.7 | 0.00 | 0.00 | 0.00 | 31 | 1017.2 |
| 20260508190541 | 16 | 302 | 4.8 | 12.9 | 0.00 | 0.00 | 0.00 | 29 | 1017.3 |
| 20260508185541 | 15 | 323 | 6.4 | 16.1 | 0.00 | 0.00 | 0.00 | 30 | 1017.4 |
| 20260508184601 | 15 | 10 | 8.0 | 12.9 | 0.00 | 0.00 | 0.00 | 30 | 1017.6 |
| 20260508183521 | 15 | 239 | 8.0 | 14.5 | 0.00 | 0.00 | 0.00 | 32 | 1017.7 |
| 20260508182521 | 15 | 331 | 8.0 | 12.9 | 0.00 | 0.00 | 0.00 | 30 | 1017.8 |
| 20260508181521 | 15 | 306 | 3.2 | 8.0 | 0.00 | 0.00 | 0.00 | 30 | 1017.8 |
| 20260508180522 | 15 | 323 | 8.0 | 12.9 | 0.00 | 0.00 | 0.00 | 32 | 1017.9 |
| 20260508175519 | 15 | 284 | 9.7 | 17.7 | 0.00 | 0.00 | 0.00 | 32 | 1018.0 |
| 20260508174519 | 14 | 11 | 11.3 | 17.7 | 0.00 | 0.00 | 0.00 | 32 | 1018.1 |
| 20260508173519 | 14 | 36 | 11.3 | 20.9 | 0.00 | 0.00 | 0.00 | 32 | 1018.2 |
| 20260508172542 | 13 | 53 | 9.7 | 16.1 | 0.00 | 0.00 | 0.00 | 31 | 1018.3 |
| 20260508171520 | 13 | 19 | 11.3 | 22.5 | 0.00 | 0.00 | 0.00 | 32 | 1018.3 |
| 20260508170600 | 13 | 25 | 12.9 | 22.5 | 0.00 | 0.00 | 0.00 | 32 | 1018.3 |
| 20260508165517 | 13 | 40 | 12.9 | 20.9 | 0.00 | 0.00 | 0.00 | 34 | 1018.4 |
| 20260508164537 | 13 | 6 | 11.3 | 19.3 | 0.00 | 0.00 | 0.00 | 32 | 1018.4 |
| 20260508163517 | 13 | 31 | 12.9 | 22.5 | 0.00 | 0.00 | 0.00 | 33 | 1018.4 |
| 20260508162540 | 13 | 7 | 11.3 | 19.3 | 0.00 | 0.00 | 0.00 | 32 | 1018.4 |
| 20260508161517 | 13 | 29 | 14.5 | 20.9 | 0.00 | 0.00 | 0.00 | 33 | 1018.4 |